Regional Weather Roundup
Issued by NWS

Current Version | Previous Version | Text Only | Print | Product List | Glossary On
Versions: 1 2 3 4 5 6 7 8 9 10 11 12 13 14 15 16 17 18 19 20 21 22 23 24 25 26 27 28 29 30 31 32 33 34 35 36 37 38 39 40 41 42 43 44 45 46 47 48 49 50
000
ASUS44 KFWD 240715
RWRTX
NORTH TEXAS HOURLY WEATHER ROUNDUP
NATIONAL WEATHER SERVICE FORT WORTH TX
200 AM CDT FRI OCT 24 2014

NOTE: "FAIR" INDICATES FEW OR NO CLOUDS BELOW 12,000 FEET WITH NO
SIGNIFICANT WEATHER AND/OR OBSTRUCTIONS TO VISIBILITY.

TXZ118-119-240800-
DALLAS/FORT WORTH METROPLEX

CITY           SKY/WX    TMP DP  RH WIND       PRES   REMARKS
DFW AIRPORT    CLEAR     63  55  75 S6        30.11S
DALLAS LOVE    PTCLDY    66  56  70 SE9       30.11S
FTW MEACHAM    CLEAR     65  56  72 SE5       30.11S
DAL-EXECUTIVE  CLEAR     63  56  78 S3        30.11F
FTW-ALLIANCE   CLEAR     62  56  80 S3        30.11S
FTW-NAS-JRB    CLOUDY    71  55  56 SE3       30.15S
FTW-SPINKS     CLOUDY    62  56  80 S3        30.13S
ARLINGTON      PTCLDY    64  55  72 S5        30.12S
GRAND PRAIRIE  CLEAR     64  57  77 CALM      30.13S
ADDISON        CLEAR     65  58  76 SE7       30.13S
MESQUITE       CLEAR     59  55  85 SE5       30.12S
LANCASTER      CLEAR     58  54  84 CALM      30.13S
$$

TXZ091>094-102>105-117-120-121-131>134-240800-
NORTH CENTRAL TEXAS

CITY           SKY/WX    TMP DP  RH WIND       PRES   REMARKS
SHRMAN/DENISON CLEAR     62  57  84 S6        30.12S
GAINESVILLE    CLEAR     58  55  91 S3        30.13S
BOWIE          CLEAR     61  57  87 SE3       30.11S
BRIDGEPORT     PTCLDY    60  58  92 CALM      30.12F
DECATUR        CLEAR     63  55  75 SE7       30.11F
DENTON         CLEAR     61  56  83 SE5       30.11S
MCKINNEY       CLEAR     60  55  83 SE3       30.12S
GREENVILLE     CLEAR     57  52  82 CALM      30.13S
ROCKWALL       CLEAR     61  55  82 SE6       30.11S
TERRELL        CLEAR     61  55  81 CALM      30.13S
WAXAHACHIE     MOCLDY    61  56  84 SE3       30.14S
CLEBURNE       CLEAR     63  57  82 S7        30.13F
GRANBURY       CLEAR     65  58  77 SE3       30.12S
$$

TXZ083>090-098>101-113>116-127>130-139>142-154-155-240800-
WESTERN NORTH TEXAS

CITY           SKY/WX    TMP DP  RH WIND       PRES   REMARKS
WICHITA FALLS  CLEAR     63  58  83 S8        30.08S
WF-KICKAPOO    CLEAR     64  58  79 SE7       30.09S
VERNON         CLEAR     63  57  82 CALM      30.08S
ABILENE        CLEAR     64  59  83 S7        30.12S
ABILENE-DYESS  CLEAR     64  58  81 S7        30.10S
BRECKENRIDGE   CLEAR     67  59  75 S7        30.10S
GRAHAM         CLEAR     66  59  78 SE5       30.09S
MINERAL WELLS  CLEAR     62  56  80 SE8       30.09S
STEPHENVILLE   CLEAR     62  56  82 CALM      30.15S
COMANCHE       CLEAR     64  59  85 SE3       30.13R
BROWNWOOD      MOCLDY    64  59  82 SE6       30.13S
COLEMAN        CLEAR     62  59  88 CALM      30.13R
BRADY          CLEAR     63  59  88 SW3       30.13S
$$

TXZ143>147-156>162-174-175-240800-
CENTRAL TEXAS

CITY           SKY/WX    TMP DP  RH WIND       PRES   REMARKS
WACO           PTCLDY    63  56  78 SE5       30.12S
WACO-MCGREGOR  CLEAR     63  52  67 S3        30.14R
HILLSBORO      PTCLDY    64  54  69 SE6       30.13S
CORSICANA      CLEAR     60  55  83 S6        30.14R
MEXIA          CLEAR     60  55  85 CALM      30.12S
HEARNE         CLEAR     58  55  87 CALM      30.13F
CAMERON        CLEAR     61  56  83 CALM      30.13R
TEMPLE         CLEAR     61  52  72 S7        30.12R
KILLEEN        CLEAR     63  56  77 S8        30.13S
KILLEEN-SKYLRK CLEAR     63  52  67 S3        30.11S
FORT HOOD      CLEAR     65  57  75 SE5       30.13R
GATESVILLE     CLEAR     63  55  77 CALM      30.15R
HAMILTON       CLEAR     61  56  83 SE9       30.14S
LAMPASAS       CLEAR     61  57  89 CALM      30.12S
$$

TXZ095>097-106>112-122>126-135>138-148>153-164>167-240800-
EAST TEXAS

CITY           SKY/WX    TMP DP  RH WIND       PRES   REMARKS
PARIS          CLEAR     55  46  71 E7        30.14S
SULPHUR SPRNGS CLEAR     57  54  88 CALM      30.15S
MOUNT PLEASANT CLEAR     55  52  92 CALM      30.15S
MINEOLA        CLEAR     55  54  94 CALM      30.14R
TYLER          CLEAR     59  53  80 S3        30.13S
LONGVIEW       CLEAR     54  51  90 CALM      30.13R
MARSHALL       CLEAR     53  51  92 CALM      30.16S
ATHENS         CLEAR     54  54 100 CALM      30.12S
PALESTINE      CLEAR     59  55  89 CALM      30.14S
JACKSONVILLE   CLEAR     58  51  77 CALM      30.15S
HENDERSON      CLEAR     52  52  99 CALM      30.15R
NACOGDOCHES    CLEAR     48  46  93 CALM      30.14S
LUFKIN         CLEAR     55  51  86 CALM      30.13S
$$

SUPPLEMENTAL OBSERVATIONS (CENTRAL)

CITY           SKY/WX    TMP DP  RH WIND       PRES   REMARKS
LAKE TEXOMA      N/A     59  54  82 E5          N/A
PAT MAYSE LAKE   N/A     57  50  77 NE5         N/A
GREENVILLE       N/A     57  52  82 SE2         N/A
CEDAR HILL       N/A     64  54  68 S6          N/A
PALESTINE        N/A     55  54  94 CALM        N/A
LAKE LIMESTONE   N/A     57  54  88 CALM        N/A
MCGREGOR         N/A     61  54  77 SW2         N/A
TEMPLE           N/A     63  54  72 SE3         N/A
$$

SUPPLEMENTAL OBSERVATIONS (WEST)

CITY           SKY/WX    TMP DP  RH WIND       PRES   REMARKS
MILLERS CREEK    N/A     64  54  68 SW3         N/A
POSSUM KINGDOM   N/A     66  57  72 SE5         N/A
GRANBURY         N/A     64  55  72 SE5         N/A
COMANCHE         N/A     64  57  77 S3          N/A
HAMBY            N/A     63  57  82 S6          N/A
IVIE RESERVOIR   N/A     63  55  77 SE1         N/A
COLORADO BEND    N/A     64  55  72 S3          N/A
$$

SUPPLEMENTAL OBSERVATIONS (EAST)

CITY           SKY/WX    TMP DP  RH WIND       PRES   REMARKS
CLARKSVILLE      N/A     54  50  87 E1          N/A
TEXARKANA        N/A     48  46  93 CALM        N/A
LINDEN           N/A     52  48  87 CALM        N/A
CADDO LAKE       N/A     46  45  93 CALM        N/A
GILMER           N/A     54  50  87 CALM        N/A
HENDERSON        N/A     52  48  87 CALM        N/A
LUFKIN           N/A     50  46  87 MISG        N/A
N SABINE NF      N/A     46  43  87 MISG        N/A
$$

SUPPLEMENTAL OBSERVATIONS ARE A COLLECTION OF AUTOMATED INSTRUMENTS
THAT ARE MAINTAINED BY A VARIETY OF FEDERAL AND STATE AGENCIES.
CERTAIN ELEMENTS...SUCH AS HUMIDITY VALUES AND SUSTAINED WIND
SPEEDS...MAY BE APPROXIMATED.




USA.gov is the U.S. government's official web portal to all federal, state and local government web resources and services.